DW7229 Weather Reports


time (UTC)temp
F
wind
direction
speed
knots
gust
knots
rain 1hr
in
rain 24hr
in
rain mn
in
humidity
%
barometer
mb
20260508134015 54 274 3.5 6.1 0.00 0.00 0.00 37 1009.2
20260508133019 53 200 2.6 7.0 0.00 0.00 0.00 38 1009.1
20260508132022 53 275 2.6 6.1 0.00 0.00 0.00 40 1009.1
20260508131025 52 301 1.7 6.1 0.00 0.00 0.00 42 1009.2
20260508130029 51 342 1.7 4.3 0.00 0.00 0.00 42 1009.3
20260508125032 50 276 1.7 4.3 0.00 0.00 0.00 43 1009.3
20260508124017 50 170 1.7 8.7 0.00 0.00 0.00 44 1009.3
20260508123020 49 238 1.7 5.2 0.00 0.00 0.00 45 1009.4
20260508122023 49 338 0.9 4.3 0.00 0.00 0.00 47 1009.5
20260508121027 48 318 1.7 4.3 0.00 0.00 0.00 48 1009.4
20260508120030 47 238 1.7 3.5 0.00 0.00 0.00 49 1009.3
20260508115015 45 332 0.9 2.6 0.00 0.00 0.00 53 1009.4
20260508114018 44 0.0 0.0 0.00 0.00 0.00 57 1009.4
20260508113021 43 0.0 0.9 0.00 0.00 0.00 59 1009.5
20260508112039 41 248 0.0 1.7 0.00 0.00 0.00 64 1009.4
20260508111036 40 0.0 0.0 0.00 0.00 0.00 67 1009.3
20260508110031 38 0.0 0.0 0.00 0.00 0.00 71 1009.3
20260508105017 38 0.0 0.0 0.00 0.00 0.00 71 1009.0
20260508104020 37 0.0 0.0 0.00 0.00 0.00 74 1008.9
20260508103023 37 0.0 0.0 0.00 0.00 0.00 74 1008.8
20260508102027 37 0.0 0.0 0.00 0.00 0.00 74 1008.7
20260508101030 36 0.0 0.0 0.00 0.00 0.00 74 1008.6
20260508100015 36 0.0 0.0 0.00 0.00 0.00 74 1008.5
20260508095018 36 0.0 0.0 0.00 0.00 0.00 74 1008.4
20260508094022 36 0.0 0.0 0.00 0.00 0.00 74 1008.4
20260508093025 36 0.0 0.0 0.00 0.00 0.00 74 1008.4
20260508092028 36 0.0 0.0 0.00 0.00 0.00 73 1008.4
20260508091031 36 0.0 0.0 0.00 0.00 0.00 73 1008.3
20260508090017 36 0.0 0.0 0.00 0.00 0.00 73 1008.3
20260508085020 36 0.0 0.0 0.00 0.00 0.00 73 1008.2
20260508084023 36 0.0 0.0 0.00 0.00 0.00 73 1008.1
20260508083027 36 0.0 0.0 0.00 0.00 0.00 72 1008.0
20260508082030 36 0.0 0.0 0.00 0.00 0.00 72 1007.8
20260508081015 37 0.0 0.0 0.00 0.00 0.00 72 1007.6
20260508080018 37 0.0 0.0 0.00 0.00 0.00 72 1007.2
20260508075041 37 0.0 0.0 0.00 0.00 0.00 72 1007.1
20260508074019 37 0.0 0.0 0.00 0.00 0.00 72 1007.0
20260508073016 37 0.0 0.0 0.00 0.00 0.00 72 1006.9
20260508072032 38 0.0 0.0 0.00 0.00 0.00 71 1007.2
20260508071017 38 0.0 0.0 0.00 0.00 0.00 71 1007.2
20260508070020 38 0.0 0.0 0.00 0.00 0.00 71 1007.2
20260508065023 38 0.0 0.0 0.00 0.00 0.00 71 1007.1
20260508064027 38 0.0 0.0 0.00 0.00 0.00 70 1007.1
20260508063030 38 0.0 0.0 0.00 0.00 0.00 70 1007.1
20260508062015 38 0.0 0.0 0.00 0.00 0.00 69 1007.2
20260508061039 39 0.0 0.0 0.00 0.00 0.00 68 1007.4
20260508060021 39 0.0 0.0 0.00 0.00 0.00 68 1007.5
20260508055025 40 0.0 0.0 0.00 0.00 0.00 67 1007.5
20260508054028 40 0.0 0.0 0.00 0.00 0.00 66 1007.5
20260508053031 41 0.0 0.0 0.00 0.00 0.00 66 1007.5
20260508052017 41 0.0 0.0 0.00 0.00 0.00 66 1007.7
20260508051020 41 0.0 0.0 0.00 0.00 0.00 65 1007.8
20260508050023 42 0.0 0.0 0.00 0.00 0.00 65 1007.8
20260508045027 42 0.0 0.0 0.00 0.00 0.00 64 1008.0
20260508044030 42 0.0 0.0 0.00 0.00 0.00 65 1008.0
20260508043015 43 0.0 0.0 0.00 0.00 0.00 62 1008.0
20260508042019 42 0.0 0.0 0.00 0.00 0.00 64 1008.2
20260508041022 43 0.0 0.0 0.00 0.00 0.00 64 1007.9
20260508040019 44 0.0 0.0 0.00 0.00 0.00 64 1007.9
20260508035016 44 0.0 0.0 0.00 0.00 0.00 62 1007.8
20260508034032 44 0.0 0.0 0.00 0.00 0.00 64 1007.8
20260508033017 45 0.0 0.0 0.00 0.00 0.00 61 1007.9
20260508032020 45 0.0 0.0 0.00 0.00 0.00 61 1007.8
20260508031023 45 0.0 0.0 0.00 0.00 0.00 59 1007.9
20260508030027 45 0.0 0.0 0.00 0.00 0.00 61 1007.7
20260508025030 46 0.0 0.0 0.00 0.00 0.00 60 1007.6
20260508024015 45 0.0 0.0 0.00 0.00 0.00 58 1007.6
20260508023019 45 0.0 0.0 0.00 0.00 0.00 57 1007.7
20260508022022 47 0.0 0.0 0.00 0.00 0.00 55 1007.5
20260508021045 47 0.0 0.0 0.00 0.00 0.00 53 1007.5
20260508020049 47 0.0 0.0 0.00 0.00 0.00 52 1007.4
20260508015032 48 0.0 0.0 0.00 0.00 0.00 51 1007.4
20260508014017 49 0.0 0.0 0.00 0.00 0.00 49 1007.2
20260508013020 50 0.0 0.0 0.00 0.00 0.00 50 1006.9
20260508012023 50 0.0 0.0 0.00 0.00 0.00 46 1006.8
20260508011026 51 0.0 0.0 0.00 0.00 0.00 44 1006.8
20260508010030 52 0.0 0.0 0.00 0.00 0.00 43 1006.5
20260508005015 53 0.0 0.0 0.00 0.00 0.00 41 1006.4
20260508004018 54 225 0.0 0.9 0.00 0.00 0.00 36 1006.3
20260508003022 54 283 0.9 2.6 0.00 0.00 0.00 36 1006.3
20260508002019 54 315 0.0 1.7 0.00 0.00 0.00 35 1006.3
20260508001017 55 0.0 0.0 0.00 0.00 0.00 34 1006.2
20260508000032 55 272 0.0 2.6 0.00 0.00 0.00 34 1005.9
20260507235017 56 0.0 0.9 0.00 0.00 0.00 32 1006.1
20260507234020 57 2 0.9 4.3 0.00 0.00 0.00 31 1006.0
20260507233023 58 0.0 0.0 0.00 0.00 0.00 32 1005.8
20260507232027 58 116 0.9 6.1 0.00 0.00 0.00 30 1005.6
20260507231030 59 241 0.9 3.5 0.00 0.00 0.00 29 1005.6
20260507230015 60 228 0.9 4.3 0.00 0.00 0.00 28 1005.6
20260507225018 61 308 1.7 5.2 0.00 0.00 0.00 26 1005.5
20260507224022 63 212 0.9 4.3 0.00 0.00 0.00 26 1005.3
20260507223025 62 247 1.7 5.2 0.00 0.00 0.00 26 1005.1
20260507222028 63 286 1.7 5.2 0.00 0.00 0.00 26 1005.1
20260507221032 63 321 0.9 4.3 0.00 0.00 0.00 26 1005.1
20260507220017 63 169 0.9 2.6 0.00 0.00 0.00 25 1005.0
20260507215020 65 205 3.5 7.8 0.00 0.00 0.00 25 1004.9
20260507214044 65 207 2.6 7.8 0.00 0.00 0.00 24 1004.8
20260507213026 64 336 1.7 7.0 0.00 0.00 0.00 26 1004.8
20260507212030 66 321 1.7 5.2 0.00 0.00 0.00 25 1004.8
20260507211015 65 237 0.9 6.1 0.00 0.00 0.00 25 1004.9
20260507210018 65 336 1.7 4.3 0.00 0.00 0.00 25 1004.8
20260507205022 65 241 2.6 5.2 0.00 0.00 0.00 25 1004.7
20260507204019 66 300 5.2 10.4 0.00 0.00 0.00 25 1004.7
20260507203016 65 341 1.7 4.3 0.00 0.00 0.00 25 1004.6
20260507202051 65 237 2.6 9.6 0.00 0.00 0.00 24 1004.8
20260507201017 66 254 4.3 8.7 0.00 0.00 0.00 24 1004.7
20260507200020 66 250 3.5 8.7 0.00 0.00 0.00 25 1004.9
20260507195023 65 239 4.3 7.8 0.00 0.00 0.00 26 1005.0
20260507194046 65 266 4.3 7.8 0.00 0.00 0.00 25 1005.1
20260507193030 66 300 3.5 6.1 0.00 0.00 0.00 26 1005.1
20260507192035 65 347 3.5 6.1 0.00 0.00 0.00 25 1005.2
20260507191018 65 277 3.5 6.1 0.00 0.00 0.00 28 1005.3
20260507190021 62 20 0.9 3.5 0.00 0.00 0.00 30 1005.5
20260507185025 64 275 4.3 6.1 0.00 0.00 0.00 29 1005.5
20260507184028 65 4 3.5 6.1 0.00 0.00 0.00 29 1005.6
20260507183031 65 214 4.3 8.7 0.00 0.00 0.00 28 1005.6
20260507182036 65 270 2.6 7.0 0.00 0.00 0.00 30 1005.7
20260507181020 64 306 2.6 7.0 0.00 0.00 0.00 29 1005.8
20260507180043 65 312 3.5 6.1 0.00 0.00 0.00 30 1005.5
20260507175026 64 300 4.3 8.7 0.00 0.00 0.00 30 1005.6
20260507174029 64 233 3.5 7.8 0.00 0.00 0.00 31 1005.6
20260507173014 64 221 4.3 7.8 0.00 0.00 0.00 30 1005.6
20260507172018 64 200 5.2 7.8 0.00 0.00 0.00 31 1005.7
20260507171021 64 199 1.7 5.2 0.00 0.00 0.00 31 1005.9
20260507170018 64 29 2.6 5.2 0.00 0.00 0.00 30 1006.2
20260507165036 63 265 3.5 7.0 0.00 0.00 0.00 32 1006.1
20260507164031 62 320 3.5 9.6 0.00 0.00 0.00 33 1006.1
20260507163016 63 219 3.5 7.0 0.00 0.00 0.00 34 1006.1
20260507162020 63 10 0.9 4.3 0.00 0.00 0.00 37 1006.3
20260507161023 61 239 3.5 7.0 0.00 0.00 0.00 40 1006.5
20260507160026 61 268 3.5 6.1 0.00 0.00 0.00 45 1006.5
20260507155029 60 257 3.5 7.0 0.00 0.00 0.00 46 1006.6
20260507154032 58 320 0.9 3.5 0.00 0.00 0.00 50 1006.6
20260507153038 61 315 0.0 1.7 0.00 0.00 0.00 47 1006.7
20260507152021 59 248 1.7 5.2 0.00 0.00 0.00 49 1006.9
20260507151024 58 257 3.5 7.0 0.00 0.00 0.00 48 1006.9
20260507150027 58 247 4.3 7.0 0.00 0.00 0.00 49 1007.0
20260507145031 59 221 0.9 3.5 0.00 0.00 0.00 49 1007.0
20260507144016 60 220 1.7 5.2 0.00 0.00 0.00 46 1006.9
20260507143059 60 325 1.7 7.0 0.00 0.00 0.00 47 1006.9
20260507142023 58 21 2.6 7.0 0.00 0.00 0.00 46 1006.9
20260507141026 58 10 0.9 3.5 0.00 0.00 0.00 48 1006.9
20260507140029 58 334 3.5 6.1 0.00 0.00 0.00 49 1006.8
20260507135026 57 1 1.7 4.3 0.00 0.00 0.00 48 1006.9